Погода в Советском Руне

Россия / Ставропольский край     45°42′50″N   43°13′54″E
темп.,
°C
ветер,
м/с
пор.,
м/с
влажн.,
%
обл.,
%
осадки,
мм/ч
давл.,
гПа
погр.,
м
13 апреля, вт
вт1300:00+8зюз369535 0.0 1023150
03:00+8зсз1193100 0.1 102237
06:00+8з2392100 0.0 1023127
09:00+11сз117954 0.0 1023394
12:00+15в2464100 0.0 10211284
15:00+14з5677100 0.1 1020181
18:00+11з5885100 0.0 1021271
21:00+10зсз3591100 0.0 1021174
14 апреля, ср
ср1400:00+9сз3592100 0.0 1020149
03:00+9сз3397100 0.0 101858
06:00+9зсз349567 0.0 1017108
09:00+12з4478100 0.0 1017519
12:00+15зсз3360100 0.1 10161053
15:00+17з435350 0.1 10151434
18:00+14зюз477191 0.1 1016311
21:00+12зюз4881100 0.2 1017234
15 апреля, чт
чт1500:00+10зюз3787100 0.0 1016156
03:00+9зюз4792100 0.0 1016151
06:00+8зюз3692100 0.0 1017138
09:00+14з45666 0.0 1017626
12:00+18зсз44460 0.0 10161363
15:00+19зсз45380 0.0 10151700
18:00+17ссз22543 0.0 101540
21:00+13сз016269 0.0 101610
16 апреля, пт
пт1600:00+11з337564 0.0 101623
03:00+10зюз22795 0.0 101611
06:00+10зсз118099 0.0 101712
09:00+14с116625 0.0 1017411
12:00+19вюв345099 0.0 10151414
15:00+20всв4448100 0.0 1014976
18:00+17св3458100 0.0 101452
21:00+12зсз3694100 4.2 1018211
17 апреля, сб
сб1700:00+10сз479336 0.6 1018321
03:00+9сз4796100 1.2 1019392
06:00+9з5895100 3.4 1020442
09:00+9сз4592100 12.4 1021399
12:00+11сз3476100 1.6 1021965
15:00+13зсз236492 1.8 1021760
18:00+13ссз4764100 0.0 1021224
21:00+9ссз22775 0.0 102126